Time,TemperatureF,DewpointF,PressureIn,WindDirection,WindDirectionDegrees,WindSpeedMPH,WindSpeedGustMPH,Humidity,HourlyPrecipIn,Conditions,Clouds,dailyrainin,SoftwareType,DateUTC
2013-02-09 00:01:00,38.0,21.0,29.82,SW,235,9.0,13.0,49,0.00,,,0.00,,2013-02-09 08:01:00,
2013-02-09 00:11:00,38.0,21.0,29.82,SW,235,9.0,13.0,49,0.00,,,0.00,,2013-02-09 08:11:00,
2013-02-09 00:21:00,39.0,21.0,29.82,WSW,252,8.0,13.0,48,0.00,,,0.00,,2013-02-09 08:21:00,
2013-02-09 00:31:00,39.0,21.0,29.82,WSW,238,6.0,12.0,48,0.00,,,0.00,,2013-02-09 08:31:00,
2013-02-09 00:41:00,39.0,21.0,29.82,WSW,238,6.0,12.0,48,0.00,,,0.00,,2013-02-09 08:41:00,
2013-02-09 00:52:00,38.0,21.0,29.82,SW,229,7.0,11.0,49,0.00,,,0.00,,2013-02-09 08:52:00,
2013-02-09 01:02:00,38.0,21.0,29.82,WSW,238,7.0,12.0,49,0.00,,,0.00,,2013-02-09 09:02:00,
2013-02-09 01:11:00,38.0,21.0,29.82,WSW,238,7.0,12.0,49,0.00,,,0.00,,2013-02-09 09:11:00,
2013-02-09 01:21:00,39.0,21.0,29.82,SW,233,10.0,15.0,48,0.00,,,0.00,,2013-02-09 09:21:00,
2013-02-09 01:31:00,39.0,21.0,29.82,WSW,238,8.0,13.0,49,0.00,,,0.00,,2013-02-09 09:31:00,
2013-02-09 01:41:00,39.0,21.0,29.82,WSW,238,8.0,13.0,49,0.00,,,0.00,,2013-02-09 09:41:00,
2013-02-09 01:52:00,39.0,22.0,29.83,SW,236,8.0,19.0,50,0.00,,,0.00,,2013-02-09 09:52:00,
2013-02-09 02:01:00,39.0,21.0,29.83,SW,229,12.0,15.0,49,0.00,,,0.00,,2013-02-09 10:01:00,
2013-02-09 02:11:00,39.0,21.0,29.83,SW,229,12.0,15.0,49,0.00,,,0.00,,2013-02-09 10:11:00,
2013-02-09 02:21:00,39.0,23.0,29.83,WSW,242,6.0,13.0,52,0.00,,,0.00,,2013-02-09 10:21:00,
2013-02-09 02:31:00,39.0,23.0,29.83,SW,235,11.0,14.0,52,0.00,,,0.00,,2013-02-09 10:31:00,
2013-02-09 02:41:00,39.0,23.0,29.83,SW,235,11.0,14.0,52,0.00,,,0.00,,2013-02-09 10:41:00,
2013-02-09 02:52:00,39.0,23.0,29.82,SW,225,12.0,21.0,52,0.00,,,0.00,,2013-02-09 10:52:00,
2013-02-09 03:01:00,39.0,24.0,29.83,WSW,237,12.0,18.0,54,0.00,,,0.00,,2013-02-09 11:01:00,
2013-02-09 03:11:00,39.0,24.0,29.83,WSW,237,12.0,18.0,54,0.00,,,0.00,,2013-02-09 11:11:00,
2013-02-09 03:21:00,39.0,25.0,29.82,SW,222,16.0,21.0,56,0.00,,,0.00,,2013-02-09 11:21:00,
2013-02-09 03:31:00,39.0,24.0,29.83,WSW,244,9.0,18.0,55,0.00,,,0.00,,2013-02-09 11:31:00,
2013-02-09 03:41:00,39.0,24.0,29.83,WSW,244,9.0,18.0,55,0.00,,,0.00,,2013-02-09 11:41:00,
2013-02-09 03:52:00,39.0,23.0,29.83,SW,220,9.0,12.0,53,0.00,,,0.00,,2013-02-09 11:52:00,
2013-02-09 04:01:00,39.0,23.0,29.83,SW,225,11.0,15.0,53,0.00,,,0.00,,2013-02-09 12:01:00,
2013-02-09 04:11:00,39.0,23.0,29.83,SW,225,11.0,15.0,53,0.00,,,0.00,,2013-02-09 12:11:00,
2013-02-09 04:21:00,39.0,24.0,29.83,SW,231,9.0,13.0,54,0.00,,,0.00,,2013-02-09 12:21:00,
2013-02-09 04:32:00,39.0,24.0,29.84,WSW,240,7.0,12.0,55,0.00,,,0.00,,2013-02-09 12:32:00,
2013-02-09 04:42:00,39.0,24.0,29.84,WSW,240,7.0,12.0,55,0.00,,,0.00,,2013-02-09 12:42:00,
2013-02-09 04:52:00,38.0,23.0,29.84,WSW,238,5.0,13.0,54,0.00,,,0.00,,2013-02-09 12:52:00,
2013-02-09 05:01:00,38.0,23.0,29.85,SW,234,7.0,11.0,54,0.00,,,0.00,,2013-02-09 13:01:00,
2013-02-09 05:11:00,38.0,23.0,29.85,SW,234,7.0,11.0,54,0.00,,,0.00,,2013-02-09 13:11:00,
2013-02-09 05:21:00,38.0,23.0,29.85,SW,217,9.0,11.0,54,0.00,,,0.00,,2013-02-09 13:21:00,
2013-02-09 05:31:00,38.0,23.0,29.85,SW,219,7.0,11.0,54,0.00,,,0.00,,2013-02-09 13:31:00,
2013-02-09 05:41:00,38.0,23.0,29.85,SW,219,7.0,11.0,54,0.00,,,0.00,,2013-02-09 13:41:00,
2013-02-09 05:52:00,38.0,23.0,29.85,SW,222,9.0,11.0,54,0.00,,,0.00,,2013-02-09 13:52:00,
2013-02-09 06:01:00,38.0,23.0,29.85,SW,218,10.0,13.0,54,0.00,,,0.00,,2013-02-09 14:01:00,
2013-02-09 06:11:00,38.0,23.0,29.85,SW,218,10.0,13.0,54,0.00,,,0.00,,2013-02-09 14:11:00,
2013-02-09 06:21:00,38.0,22.0,29.86,SW,221,7.0,13.0,53,0.00,,,0.00,,2013-02-09 14:21:00,
2013-02-09 06:31:00,38.0,22.0,29.84,SW,215,10.0,14.0,53,0.00,,,0.00,,2013-02-09 14:31:00,
2013-02-09 06:41:00,38.0,22.0,29.84,SW,215,10.0,14.0,53,0.00,,,0.00,,2013-02-09 14:41:00,
2013-02-09 06:52:00,38.0,22.0,29.84,SW,220,10.0,13.0,53,0.00,,,0.00,,2013-02-09 14:52:00,
2013-02-09 07:01:00,38.0,22.0,29.85,SW,232,11.0,13.0,53,0.00,,,0.00,,2013-02-09 15:01:00,
2013-02-09 07:11:00,38.0,22.0,29.85,SW,232,11.0,13.0,53,0.00,,,0.00,,2013-02-09 15:11:00,
2013-02-09 07:21:00,38.0,23.0,29.86,SW,236,7.0,11.0,54,0.00,,,0.00,,2013-02-09 15:21:00,
2013-02-09 07:31:00,38.0,22.0,29.86,SW,236,10.0,13.0,53,0.00,,,0.00,,2013-02-09 15:31:00,
2013-02-09 07:41:00,38.0,22.0,29.86,SW,236,10.0,13.0,53,0.00,,,0.00,,2013-02-09 15:41:00,
2013-02-09 07:52:00,39.0,23.0,29.87,SW,236,13.0,15.0,52,0.00,,,0.00,,2013-02-09 15:52:00,
2013-02-09 08:01:00,40.0,23.0,29.87,SW,224,12.0,15.0,51,0.00,,,0.00,,2013-02-09 16:01:00,
2013-02-09 08:11:00,40.0,23.0,29.87,SW,224,12.0,15.0,51,0.00,,,0.00,,2013-02-09 16:11:00,
2013-02-09 08:21:00,42.0,24.0,29.87,WSW,237,7.0,13.0,48,0.00,,,0.00,,2013-02-09 16:21:00,
2013-02-09 08:31:00,42.0,23.0,29.88,SW,219,10.0,14.0,46,0.00,,,0.00,,2013-02-09 16:31:00,
2013-02-09 08:41:00,42.0,23.0,29.88,SW,219,10.0,14.0,46,0.00,,,0.00,,2013-02-09 16:41:00,
2013-02-09 08:52:00,44.0,23.0,29.88,WSW,237,8.0,14.0,43,0.00,,,0.00,,2013-02-09 16:52:00,
2013-02-09 09:01:00,45.0,23.0,29.88,SW,234,11.0,13.0,41,0.00,,,0.00,,2013-02-09 17:01:00,
2013-02-09 09:11:00,45.0,23.0,29.88,SW,234,11.0,13.0,41,0.00,,,0.00,,2013-02-09 17:11:00,
2013-02-09 09:21:00,48.0,22.0,29.88,WSW,242,6.0,14.0,36,0.00,,,0.00,,2013-02-09 17:21:00,
2013-02-09 09:31:00,49.0,23.0,29.89,West,273,6.0,12.0,36,0.00,,,0.00,,2013-02-09 17:31:00,
2013-02-09 09:41:00,49.0,23.0,29.89,West,273,6.0,12.0,36,0.00,,,0.00,,2013-02-09 17:41:00,
2013-02-09 09:52:00,51.0,20.0,29.88,West,279,3.0,9.0,29,0.00,,,0.00,,2013-02-09 17:52:00,
2013-02-09 10:01:00,52.0,20.0,29.89,NW,311,6.0,13.0,28,0.00,,,0.00,,2013-02-09 18:01:00,
2013-02-09 10:11:00,52.0,20.0,29.89,NW,311,6.0,13.0,28,0.00,,,0.00,,2013-02-09 18:11:00,
2013-02-09 10:23:00,53.0,20.0,29.90,NW,311,1.0,13.0,27,0.00,,,0.00,,2013-02-09 18:23:00,
2013-02-09 10:31:00,53.0,20.0,29.90,NW,309,2.0,14.0,27,0.00,,,0.00,,2013-02-09 18:31:00,
2013-02-09 10:41:00,53.0,20.0,29.90,NW,309,2.0,14.0,27,0.00,,,0.00,,2013-02-09 18:41:00,
2013-02-09 10:52:00,52.0,20.0,29.90,SW,227,6.0,12.0,28,0.00,,,0.00,,2013-02-09 18:52:00,
2013-02-09 11:01:00,53.0,20.0,29.90,WNW,298,10.0,12.0,27,0.00,,,0.00,,2013-02-09 19:01:00,
2013-02-09 11:11:00,53.0,20.0,29.90,WNW,298,10.0,12.0,27,0.00,,,0.00,,2013-02-09 19:11:00,
2013-02-09 11:21:00,53.0,20.0,29.89,SW,216,6.0,12.0,27,0.00,,,0.00,,2013-02-09 19:21:00,
2013-02-09 11:31:00,53.0,19.0,29.90,SW,227,4.0,11.0,26,0.00,,,0.00,,2013-02-09 19:31:00,
2013-02-09 11:41:00,53.0,19.0,29.90,SW,227,4.0,11.0,26,0.00,,,0.00,,2013-02-09 19:41:00,
2013-02-09 11:52:00,55.0,21.0,29.92,WNW,292,7.0,13.0,26,0.00,,,0.00,,2013-02-09 19:52:00,
2013-02-09 12:01:00,55.0,21.0,29.92,WNW,282,3.0,12.0,26,0.00,,,0.00,,2013-02-09 20:01:00,
2013-02-09 12:11:00,55.0,21.0,29.92,WNW,282,3.0,12.0,26,0.00,,,0.00,,2013-02-09 20:11:00,
2013-02-09 12:21:00,55.0,20.0,29.91,SW,227,2.0,15.0,25,0.00,,,0.00,,2013-02-09 20:21:00,
2013-02-09 12:31:00,55.0,21.0,29.90,South,177,5.0,7.0,26,0.00,,,0.00,,2013-02-09 20:31:00,
2013-02-09 12:41:00,55.0,21.0,29.90,South,177,5.0,7.0,26,0.00,,,0.00,,2013-02-09 20:41:00,
2013-02-09 12:52:00,56.0,23.0,29.90,SW,214,8.0,17.0,27,0.00,,,0.00,,2013-02-09 20:52:00,
2013-02-09 13:01:00,56.0,22.0,29.89,SSW,202,7.0,17.0,26,0.00,,,0.00,,2013-02-09 21:01:00,
2013-02-09 13:11:00,56.0,22.0,29.89,SSW,202,7.0,17.0,26,0.00,,,0.00,,2013-02-09 21:11:00,
2013-02-09 13:21:00,57.0,23.0,29.89,SSW,195,13.0,18.0,27,0.00,,,0.00,,2013-02-09 21:21:00,
2013-02-09 13:31:00,57.0,24.0,29.88,SSE,160,12.0,19.0,28,0.00,,,0.00,,2013-02-09 21:31:00,
2013-02-09 13:41:00,57.0,24.0,29.88,SSE,160,12.0,19.0,28,0.00,,,0.00,,2013-02-09 21:41:00,
2013-02-09 13:52:00,57.0,23.0,29.88,SSW,192,11.0,16.0,27,0.00,,,0.00,,2013-02-09 21:52:00,
2013-02-09 14:01:00,57.0,23.0,29.88,South,169,10.0,16.0,27,0.00,,,0.00,,2013-02-09 22:01:00,
2013-02-09 14:11:00,57.0,23.0,29.88,South,169,10.0,16.0,27,0.00,,,0.00,,2013-02-09 22:11:00,
2013-02-09 14:21:00,58.0,24.0,29.88,SSE,153,9.0,16.0,27,0.00,,,0.00,,2013-02-09 22:21:00,
2013-02-09 14:31:00,58.0,25.0,29.88,SSE,164,14.0,20.0,28,0.00,,,0.00,,2013-02-09 22:31:00,
2013-02-09 14:41:00,58.0,25.0,29.88,SSE,164,14.0,20.0,28,0.00,,,0.00,,2013-02-09 22:41:00,
2013-02-09 14:52:00,56.0,24.0,29.88,South,172,16.0,24.0,29,0.00,,,0.00,,2013-02-09 22:52:00,
2013-02-09 15:01:00,56.0,24.0,29.88,SSW,196,11.0,19.0,29,0.00,,,0.00,,2013-02-09 23:01:00,
2013-02-09 15:11:00,56.0,24.0,29.88,SSW,196,11.0,19.0,29,0.00,,,0.00,,2013-02-09 23:11:00,
2013-02-09 15:21:00,56.0,25.0,29.88,SSW,198,16.0,21.0,30,0.00,,,0.00,,2013-02-09 23:21:00,
2013-02-09 15:31:00,56.0,25.0,29.88,South,176,13.0,19.0,30,0.00,,,0.00,,2013-02-09 23:31:00,
2013-02-09 15:41:00,56.0,25.0,29.88,South,176,13.0,19.0,30,0.00,,,0.00,,2013-02-09 23:41:00,
2013-02-09 15:52:00,55.0,24.0,29.88,South,180,13.0,20.0,30,0.00,,,0.00,,2013-02-09 23:52:00,
2013-02-09 16:02:00,55.0,25.0,29.88,SSW,203,10.0,21.0,31,0.00,,,0.00,,2013-02-10 00:02:00,
2013-02-09 16:11:00,55.0,25.0,29.88,SSW,203,10.0,21.0,31,0.00,,,0.00,,2013-02-10 00:11:00,
2013-02-09 16:21:00,54.0,24.0,29.88,South,178,14.0,22.0,31,0.00,,,0.00,,2013-02-10 00:21:00,
2013-02-09 16:31:00,54.0,24.0,29.88,South,178,14.0,19.0,31,0.00,,,0.00,,2013-02-10 00:31:00,
2013-02-09 16:41:00,54.0,24.0,29.88,South,178,14.0,19.0,31,0.00,,,0.00,,2013-02-10 00:41:00,
2013-02-09 16:52:00,53.0,24.0,29.89,South,187,11.0,18.0,32,0.00,,,0.00,,2013-02-10 00:52:00,
2013-02-09 17:01:00,52.0,24.0,29.89,SSW,194,14.0,19.0,33,0.00,,,0.00,,2013-02-10 01:01:00,
2013-02-09 17:11:00,52.0,24.0,29.89,SSW,194,14.0,19.0,33,0.00,,,0.00,,2013-02-10 01:11:00,
2013-02-09 17:21:00,50.0,23.0,29.90,SSW,192,16.0,22.0,35,0.00,,,0.00,,2013-02-10 01:21:00,
2013-02-09 17:31:00,49.0,24.0,29.90,South,183,15.0,23.0,37,0.00,,,0.00,,2013-02-10 01:31:00,
2013-02-09 17:41:00,49.0,24.0,29.90,South,183,15.0,23.0,37,0.00,,,0.00,,2013-02-10 01:41:00,
2013-02-09 17:51:00,47.0,23.0,29.90,SSW,196,15.0,21.0,38,0.00,,,0.00,,2013-02-10 01:51:00,
2013-02-09 18:01:00,47.0,23.0,29.91,SSW,210,13.0,19.0,39,0.00,,,0.00,,2013-02-10 02:01:00,
2013-02-09 18:11:00,47.0,23.0,29.91,SSW,210,13.0,19.0,39,0.00,,,0.00,,2013-02-10 02:11:00,
2013-02-09 18:21:00,46.0,23.0,29.91,South,188,17.0,22.0,40,0.00,,,0.00,,2013-02-10 02:21:00,
2013-02-09 18:31:00,46.0,23.0,29.91,SW,221,11.0,22.0,40,0.00,,,0.00,,2013-02-10 02:31:00,
2013-02-09 18:41:00,46.0,23.0,29.91,SW,221,11.0,22.0,40,0.00,,,0.00,,2013-02-10 02:41:00,
2013-02-09 18:52:00,45.0,23.0,29.93,SSW,213,12.0,16.0,41,0.00,,,0.00,,2013-02-10 02:52:00,
2013-02-09 19:01:00,45.0,23.0,29.93,SSW,209,11.0,17.0,41,0.00,,,0.00,,2013-02-10 03:01:00,
2013-02-09 19:11:00,45.0,23.0,29.93,SSW,209,11.0,17.0,41,0.00,,,0.00,,2013-02-10 03:11:00,
2013-02-09 19:21:00,44.0,22.0,29.93,SSW,195,14.0,18.0,42,0.00,,,0.00,,2013-02-10 03:21:00,
2013-02-09 19:31:00,44.0,22.0,29.93,SSW,202,12.0,17.0,42,0.00,,,0.00,,2013-02-10 03:31:00,
2013-02-09 19:41:00,44.0,22.0,29.93,SSW,202,12.0,17.0,42,0.00,,,0.00,,2013-02-10 03:41:00,
2013-02-09 19:52:00,43.0,22.0,29.94,SW,222,10.0,17.0,43,0.00,,,0.00,,2013-02-10 03:52:00,
2013-02-09 20:01:00,43.0,22.0,29.95,SW,217,11.0,15.0,43,0.00,,,0.00,,2013-02-10 04:01:00,
2013-02-09 20:11:00,43.0,22.0,29.95,SW,217,11.0,15.0,43,0.00,,,0.00,,2013-02-10 04:11:00,
2013-02-09 20:21:00,43.0,22.0,29.95,SW,221,12.0,16.0,43,0.00,,,0.00,,2013-02-10 04:21:00,
2013-02-09 20:31:00,43.0,22.0,29.96,SSW,213,11.0,15.0,43,0.00,,,0.00,,2013-02-10 04:31:00,
2013-02-09 20:41:00,43.0,22.0,29.96,SSW,213,11.0,15.0,43,0.00,,,0.00,,2013-02-10 04:41:00,
2013-02-09 20:52:00,43.0,22.0,29.96,SW,218,11.0,17.0,42,0.00,,,0.00,,2013-02-10 04:52:00,
2013-02-09 21:01:00,43.0,22.0,29.96,SSW,200,12.0,16.0,42,0.00,,,0.00,,2013-02-10 05:01:00,
2013-02-09 21:11:00,43.0,22.0,29.96,SSW,200,12.0,16.0,42,0.00,,,0.00,,2013-02-10 05:11:00,
2013-02-09 21:22:00,43.0,22.0,29.96,SW,221,12.0,16.0,43,0.00,,,0.00,,2013-02-10 05:22:00,
2013-02-09 21:31:00,43.0,22.0,29.97,SW,222,12.0,16.0,43,0.00,,,0.00,,2013-02-10 05:31:00,
2013-02-09 21:41:00,43.0,22.0,29.97,SW,222,12.0,16.0,43,0.00,,,0.00,,2013-02-10 05:41:00,
2013-02-09 21:52:00,42.0,22.0,29.97,SW,231,10.0,13.0,44,0.00,,,0.00,,2013-02-10 05:52:00,
2013-02-09 22:01:00,42.0,21.0,29.98,SSW,211,11.0,15.0,43,0.00,,,0.00,,2013-02-10 06:01:00,
2013-02-09 22:11:00,42.0,21.0,29.98,SSW,211,11.0,15.0,43,0.00,,,0.00,,2013-02-10 06:11:00,
2013-02-09 22:21:00,42.0,21.0,29.98,SW,226,9.0,13.0,43,0.00,,,0.00,,2013-02-10 06:21:00,
2013-02-09 22:31:00,42.0,21.0,29.98,SW,214,9.0,12.0,43,0.00,,,0.00,,2013-02-10 06:31:00,
2013-02-09 22:42:00,42.0,21.0,29.98,SW,214,9.0,12.0,43,0.00,,,0.00,,2013-02-10 06:42:00,
2013-02-09 22:52:00,42.0,22.0,29.98,SW,215,11.0,17.0,44,0.00,,,0.00,,2013-02-10 06:52:00,
2013-02-09 23:01:00,41.0,21.0,29.99,SW,233,8.0,15.0,44,0.00,,,0.00,,2013-02-10 07:01:00,
2013-02-09 23:11:00,41.0,21.0,29.99,SW,233,8.0,15.0,44,0.00,,,0.00,,2013-02-10 07:11:00,
2013-02-09 23:21:00,41.0,21.0,30.00,SW,221,10.0,13.0,45,0.00,,,0.00,,2013-02-10 07:21:00,
2013-02-09 23:31:00,41.0,21.0,30.00,SW,218,11.0,16.0,45,0.00,,,0.00,,2013-02-10 07:31:00,
2013-02-09 23:41:00,41.0,21.0,30.00,SW,218,11.0,16.0,45,0.00,,,0.00,,2013-02-10 07:41:00,
2013-02-09 23:52:00,41.0,22.0,30.00,SW,232,8.0,15.0,46,0.00,,,0.00,,2013-02-10 07:52:00,